| time (UTC) | temp F | wind direction | speed MPH | gust MPH | rain 1hr in | rain 24hr in | rain mn in | humidity % | barometer mb |
| 20260902044018 | 56 | 76 | 0.0 | 0.0 | 0.00 | 0.00 | 0.00 | 68 | 1012.7 |
| 20260902043517 | 56 | 76 | 0.0 | 0.0 | 0.00 | 0.00 | 0.00 | 67 | 1012.8 |
| 20260902042517 | 56 | 76 | 0.0 | 0.0 | 0.00 | 0.00 | 0.00 | 65 | 1013.0 |
| 20260902042020 | 57 | 76 | 0.0 | 0.0 | 0.00 | 0.00 | 0.00 | 64 | 1013.0 |
| 20260902041540 | 57 | 76 | 0.0 | 0.0 | 0.00 | 0.00 | 0.00 | 63 | 1012.9 |
| 20260902041020 | 58 | 76 | 0.0 | 0.0 | 0.00 | 0.00 | 0.00 | 64 | 1012.9 |
| 20260902040519 | 58 | 77 | 0.0 | 0.0 | 0.00 | 0.00 | 0.00 | 62 | 1013.0 |
| 20260902040047 | 58 | 77 | 0.0 | 0.0 | 0.00 | 0.00 | 0.00 | 62 | 1013.0 |
| 20260902035517 | 58 | 82 | 0.0 | 0.0 | 0.00 | 0.00 | 0.00 | 61 | 1013.0 |
| 20260902035017 | 58 | 83 | 0.0 | 0.0 | 0.00 | 0.00 | 0.00 | 61 | 1012.9 |
| 20260902034539 | 58 | 83 | 0.0 | 0.0 | 0.00 | 0.00 | 0.00 | 59 | 1012.8 |
| 20260902034015 | 58 | 83 | 0.0 | 0.0 | 0.00 | 0.00 | 0.00 | 58 | 1012.7 |
| 20260902033517 | 58 | 83 | 0.0 | 0.0 | 0.00 | 0.00 | 0.00 | 58 | 1012.6 |
| 20260902033037 | 58 | 84 | 0.0 | 0.0 | 0.00 | 0.00 | 0.00 | 58 | 1012.5 |
| 20260902032520 | 58 | 84 | 0.0 | 0.0 | 0.00 | 0.00 | 0.00 | 57 | 1012.4 |
| 20260902031543 | 58 | 84 | 0.0 | 0.0 | 0.00 | 0.00 | 0.00 | 57 | 1012.2 |
| 20260902031017 | 58 | 84 | 0.0 | 0.0 | 0.00 | 0.00 | 0.00 | 57 | 1012.2 |
| 20260902030518 | 59 | 84 | 0.0 | 0.0 | 0.00 | 0.00 | 0.00 | 57 | 1012.2 |
| 20260902030042 | 59 | 88 | 0.0 | 0.0 | 0.00 | 0.00 | 0.00 | 57 | 1012.2 |
| 20260902025519 | 59 | 96 | 0.0 | 1.0 | 0.00 | 0.00 | 0.00 | 57 | 1012.1 |
| 20260902025019 | 59 | 78 | 0.0 | 1.0 | 0.00 | 0.00 | 0.00 | 57 | 1012.0 |
| 20260902024539 | 59 | 82 | 0.0 | 0.0 | 0.00 | 0.00 | 0.00 | 56 | 1012.1 |
| 20260902024015 | 59 | 80 | 0.0 | 4.0 | 0.00 | 0.00 | 0.00 | 56 | 1012.1 |
| 20260902023519 | 59 | 92 | 0.0 | 6.0 | 0.00 | 0.00 | 0.00 | 56 | 1012.0 |
| 20260902023038 | 60 | 103 | 0.0 | 6.0 | 0.00 | 0.00 | 0.00 | 56 | 1012.1 |
| 20260902022520 | 60 | 90 | 0.0 | 7.0 | 0.00 | 0.00 | 0.00 | 56 | 1012.2 |
| 20260902022019 | 60 | 98 | 0.0 | 9.0 | 0.00 | 0.00 | 0.00 | 55 | 1012.3 |
| 20260902021535 | 60 | 106 | 0.0 | 9.0 | 0.00 | 0.00 | 0.00 | 55 | 1012.3 |
| 20260902021019 | 60 | 28 | 1.0 | 8.0 | 0.00 | 0.00 | 0.00 | 55 | 1012.3 |
| 20260902020520 | 61 | 30 | 0.0 | 8.0 | 0.00 | 0.00 | 0.00 | 55 | 1012.4 |
| 20260902020039 | 61 | 103 | 0.0 | 8.0 | 0.00 | 0.00 | 0.00 | 54 | 1012.4 |
| 20260902015517 | 61 | 94 | 0.0 | 8.0 | 0.00 | 0.00 | 0.00 | 53 | 1012.3 |
| 20260902015017 | 61 | 78 | 0.0 | 3.0 | 0.00 | 0.00 | 0.00 | 51 | 1012.2 |
| 20260902014540 | 62 | 96 | 0.0 | 7.0 | 0.00 | 0.00 | 0.00 | 50 | 1012.3 |
| 20260902014020 | 62 | 92 | 0.0 | 7.0 | 0.00 | 0.00 | 0.00 | 49 | 1012.3 |
| 20260902013516 | 62 | 98 | 0.0 | 4.0 | 0.00 | 0.00 | 0.00 | 48 | 1012.2 |
| 20260902013043 | 63 | 94 | 0.0 | 3.0 | 0.00 | 0.00 | 0.00 | 46 | 1012.3 |
| 20260902012521 | 64 | 84 | 0.0 | 3.0 | 0.00 | 0.00 | 0.00 | 45 | 1012.2 |
| 20260902010041 | 64 | 77 | 0.0 | 0.0 | 0.00 | 0.00 | 0.00 | 43 | 1012.3 |
| 20260902005520 | 64 | 77 | 0.0 | 0.0 | 0.00 | 0.00 | 0.00 | 43 | 1012.3 |
| 20260902005018 | 64 | 78 | 0.0 | 0.0 | 0.00 | 0.00 | 0.00 | 43 | 1012.3 |
| 20260902004543 | 64 | 79 | 0.0 | 0.0 | 0.00 | 0.00 | 0.00 | 43 | 1012.3 |
| 20260902004020 | 65 | 79 | 0.0 | 0.0 | 0.00 | 0.00 | 0.00 | 44 | 1012.3 |
| 20260902003519 | 65 | 81 | 0.0 | 0.0 | 0.00 | 0.00 | 0.00 | 44 | 1012.3 |
| 20260902003043 | 65 | 82 | 0.0 | 0.0 | 0.00 | 0.00 | 0.00 | 44 | 1012.0 |
| 20260902002515 | 65 | 82 | 0.0 | 0.0 | 0.00 | 0.00 | 0.00 | 43 | 1012.0 |
| 20260902002016 | 65 | 82 | 0.0 | 2.0 | 0.00 | 0.00 | 0.00 | 43 | 1012.2 |
| 20260902001556 | 66 | 85 | 0.0 | 2.0 | 0.00 | 0.00 | 0.00 | 42 | 1012.4 |
| 20260902001018 | 66 | 89 | 0.0 | 4.0 | 0.00 | 0.00 | 0.00 | 42 | 1012.3 |
| 20260902000043 | 67 | 96 | 0.0 | 6.0 | 0.00 | 0.00 | 0.00 | 42 | 1012.5 |
| 20260901235520 | 67 | 103 | 0.0 | 6.0 | 0.00 | 0.00 | 0.00 | 42 | 1012.6 |
| 20260901235018 | 67 | 103 | 0.0 | 3.0 | 0.00 | 0.00 | 0.00 | 41 | 1012.7 |
| 20260901234541 | 67 | 103 | 0.0 | 4.0 | 0.00 | 0.00 | 0.00 | 41 | 1012.5 |
| 20260901234022 | 67 | 89 | 0.0 | 7.0 | 0.00 | 0.00 | 0.00 | 41 | 1012.6 |
| 20260901233517 | 67 | 94 | 0.0 | 7.0 | 0.00 | 0.00 | 0.00 | 41 | 1012.5 |
| 20260901233037 | 67 | 101 | 0.0 | 6.0 | 0.00 | 0.00 | 0.00 | 41 | 1012.7 |
| 20260901232519 | 67 | 106 | 0.0 | 6.0 | 0.00 | 0.00 | 0.00 | 40 | 1012.8 |
| 20260901232016 | 66 | 92 | 0.0 | 6.0 | 0.00 | 0.00 | 0.00 | 42 | 1012.7 |
| 20260901231538 | 66 | 105 | 0.0 | 6.0 | 0.00 | 0.00 | 0.00 | 43 | 1012.8 |
| 20260901231019 | 65 | 101 | 0.0 | 2.0 | 0.00 | 0.00 | 0.00 | 43 | 1012.8 |
| 20260901230519 | 65 | 86 | 0.0 | 1.0 | 0.00 | 0.00 | 0.00 | 43 | 1012.8 |
| 20260901230040 | 65 | 80 | 0.0 | 2.0 | 0.00 | 0.00 | 0.00 | 43 | 1013.1 |
| 20260901225518 | 66 | 87 | 0.0 | 2.0 | 0.00 | 0.00 | 0.00 | 42 | 1012.9 |
| 20260901225017 | 66 | 94 | 0.0 | 0.0 | 0.00 | 0.00 | 0.00 | 43 | 1012.9 |
| 20260901224545 | 67 | 19 | 0.0 | 7.0 | 0.00 | 0.00 | 0.00 | 41 | 1012.9 |
| 20260901224023 | 68 | 105 | 1.0 | 7.0 | 0.00 | 0.00 | 0.00 | 38 | 1012.8 |
| 20260901223519 | 68 | 106 | 0.0 | 7.0 | 0.00 | 0.00 | 0.00 | 43 | 1012.8 |
| 20260901223046 | 67 | 101 | 2.0 | 7.0 | 0.00 | 0.00 | 0.00 | 43 | 1013.1 |
| 20260901222518 | 67 | 103 | 0.0 | 7.0 | 0.00 | 0.00 | 0.00 | 42 | 1013.1 |
| 20260901222017 | 66 | 93 | 0.0 | 6.0 | 0.00 | 0.00 | 0.00 | 44 | 1013.1 |
| 20260901221556 | 65 | 113 | 0.0 | 6.0 | 0.00 | 0.00 | 0.00 | 43 | 1013.1 |
| 20260901221019 | 65 | 101 | 0.0 | 6.0 | 0.00 | 0.00 | 0.00 | 44 | 1013.1 |
| 20260901220519 | 65 | 106 | 0.0 | 4.0 | 0.00 | 0.00 | 0.00 | 46 | 1013.1 |
| 20260901220050 | 65 | 101 | 0.0 | 6.0 | 0.00 | 0.00 | 0.00 | 44 | 1013.1 |
| 20260901215517 | 65 | 113 | 0.0 | 6.0 | 0.00 | 0.00 | 0.00 | 44 | 1013.2 |
| 20260901215017 | 65 | 109 | 0.0 | 4.0 | 0.00 | 0.00 | 0.00 | 44 | 1013.1 |
| 20260901214541 | 65 | 98 | 0.0 | 4.0 | 0.00 | 0.00 | 0.00 | 42 | 1013.2 |
| 20260901214017 | 65 | 84 | 0.0 | 4.0 | 0.00 | 0.00 | 0.00 | 43 | 1013.4 |
| 20260901213521 | 66 | 105 | 0.0 | 4.0 | 0.00 | 0.00 | 0.00 | 43 | 1013.5 |
| 20260901213044 | 66 | 96 | 0.0 | 4.0 | 0.00 | 0.00 | 0.00 | 42 | 1013.4 |
| 20260901212519 | 66 | 90 | 0.0 | 6.0 | 0.00 | 0.00 | 0.00 | 41 | 1013.6 |
| 20260901212024 | 67 | 94 | 1.0 | 6.0 | 0.00 | 0.00 | 0.00 | 42 | 1013.7 |
| 20260901211544 | 67 | 107 | 0.0 | 6.0 | 0.00 | 0.00 | 0.00 | 41 | 1013.6 |
| 20260901211017 | 67 | 101 | 0.0 | 4.0 | 0.00 | 0.00 | 0.00 | 42 | 1013.7 |
| 20260901210522 | 67 | 74 | 0.0 | 0.0 | 0.00 | 0.00 | 0.00 | 42 | 1013.7 |
| 20260901210038 | 67 | 81 | 0.0 | 3.0 | 0.00 | 0.00 | 0.00 | 42 | 1013.8 |
| 20260901205516 | 67 | 86 | 0.0 | 3.0 | 0.00 | 0.00 | 0.00 | 42 | 1013.8 |
| 20260901205020 | 68 | 100 | 1.0 | 6.0 | 0.00 | 0.00 | 0.00 | 40 | 1013.8 |
| 20260901204546 | 68 | 98 | 0.0 | 6.0 | 0.00 | 0.00 | 0.00 | 38 | 1013.8 |
| 20260901204017 | 68 | 86 | 0.0 | 6.0 | 0.00 | 0.00 | 0.00 | 40 | 1013.8 |
| 20260901203518 | 68 | 107 | 1.0 | 6.0 | 0.00 | 0.00 | 0.00 | 37 | 1013.8 |
| 20260901203047 | 68 | 67 | 0.0 | 4.0 | 0.00 | 0.00 | 0.00 | 38 | 1013.7 |
| 20260901202521 | 68 | 103 | 0.0 | 3.0 | 0.00 | 0.00 | 0.00 | 39 | 1013.8 |
| 20260901202019 | 68 | 82 | 0.0 | 7.0 | 0.00 | 0.00 | 0.00 | 38 | 1013.8 |
| 20260901201543 | 68 | 109 | 2.0 | 7.0 | 0.00 | 0.00 | 0.00 | 38 | 1013.8 |
| 20260901201018 | 68 | 105 | 1.0 | 8.0 | 0.00 | 0.00 | 0.00 | 38 | 1013.9 |
| 20260901200518 | 68 | 113 | 1.0 | 8.0 | 0.00 | 0.00 | 0.00 | 39 | 1013.9 |
| 20260901200045 | 68 | 112 | 1.0 | 6.0 | 0.00 | 0.00 | 0.00 | 38 | 1014.0 |
| 20260901195518 | 68 | 101 | 0.0 | 8.0 | 0.00 | 0.00 | 0.00 | 40 | 1014.1 |
| 20260901195021 | 67 | 101 | 0.0 | 6.0 | 0.00 | 0.00 | 0.00 | 40 | 1014.1 |
| 20260901194545 | 67 | 98 | 0.0 | 2.0 | 0.00 | 0.00 | 0.00 | 39 | 1014.1 |
| 20260901194017 | 68 | 92 | 0.0 | 2.0 | 0.00 | 0.00 | 0.00 | 38 | 1014.2 |
| 20260901193518 | 69 | 78 | 0.0 | 2.0 | 0.00 | 0.00 | 0.00 | 38 | 1014.3 |
| 20260901193048 | 69 | 94 | 0.0 | 2.0 | 0.00 | 0.00 | 0.00 | 39 | 1014.4 |
| 20260901192517 | 69 | 106 | 0.0 | 6.0 | 0.00 | 0.00 | 0.00 | 38 | 1014.3 |
| 20260901192019 | 69 | 84 | 0.0 | 7.0 | 0.00 | 0.00 | 0.00 | 39 | 1014.4 |
| 20260901191558 | 69 | 85 | 0.0 | 4.0 | 0.00 | 0.00 | 0.00 | 38 | 1014.4 |
| 20260901191023 | 68 | 103 | 0.0 | 8.0 | 0.00 | 0.00 | 0.00 | 38 | 1014.4 |
| 20260901190523 | 69 | 84 | 0.0 | 8.0 | 0.00 | 0.00 | 0.00 | 38 | 1014.5 |
| 20260901190045 | 69 | 96 | 0.0 | 7.0 | 0.00 | 0.00 | 0.00 | 38 | 1014.6 |
| 20260901185521 | 69 | 107 | 0.0 | 7.0 | 0.00 | 0.00 | 0.00 | 40 | 1014.6 |
| 20260901185017 | 68 | 94 | 0.0 | 3.0 | 0.00 | 0.00 | 0.00 | 38 | 1014.6 |
| 20260901184547 | 68 | 86 | 0.0 | 4.0 | 0.00 | 0.00 | 0.00 | 39 | 1014.7 |
| 20260901184019 | 69 | 111 | 0.0 | 6.0 | 0.00 | 0.00 | 0.00 | 39 | 1014.7 |
| 20260901183520 | 69 | 98 | 0.0 | 6.0 | 0.00 | 0.00 | 0.00 | 39 | 1014.9 |
| 20260901183048 | 69 | 90 | 0.0 | 8.0 | 0.00 | 0.00 | 0.00 | 39 | 1014.7 |
| 20260901182518 | 69 | 99 | 1.0 | 8.0 | 0.00 | 0.00 | 0.00 | 40 | 1014.8 |
| 20260901182017 | 69 | 115 | 1.0 | 7.0 | 0.00 | 0.00 | 0.00 | 38 | 1014.9 |
| 20260901181547 | 69 | 100 | 1.0 | 7.0 | 0.00 | 0.00 | 0.00 | 39 | 1014.7 |
| 20260901181021 | 69 | 94 | 0.0 | 6.0 | 0.00 | 0.00 | 0.00 | 41 | 1014.8 |
| 20260901180518 | 68 | 86 | 0.0 | 8.0 | 0.00 | 0.00 | 0.00 | 40 | 1015.0 |
| 20260901180043 | 68 | 109 | 1.0 | 7.0 | 0.00 | 0.00 | 0.00 | 40 | 1014.9 |
| 20260901175519 | 69 | 102 | 1.0 | 6.0 | 0.00 | 0.00 | 0.00 | 37 | 1015.0 |
| 20260901175023 | 69 | 103 | 0.0 | 4.0 | 0.00 | 0.00 | 0.00 | 40 | 1015.1 |
| 20260901174551 | 69 | 104 | 0.0 | 4.0 | 0.00 | 0.00 | 0.00 | 39 | 1015.1 |
| 20260901174019 | 70 | 101 | 0.0 | 4.0 | 0.00 | 0.00 | 0.00 | 39 | 1015.0 |
| 20260901173518 | 69 | 103 | 0.0 | 3.0 | 0.00 | 0.00 | 0.00 | 41 | 1014.7 |
| 20260901173057 | 69 | 87 | 0.0 | 4.0 | 0.00 | 0.00 | 0.00 | 39 | 1014.8 |
| 20260901172518 | 68 | 95 | 0.0 | 3.0 | 0.00 | 0.00 | 0.00 | 35 | 1014.7 |
| 20260901172020 | 68 | 45 | 0.0 | 3.0 | 0.00 | 0.00 | 0.00 | 39 | 1014.7 |
| 20260901171556 | 68 | 104 | 0.0 | 1.0 | 0.00 | 0.00 | 0.00 | 43 | 1014.7 |
| 20260901171019 | 67 | 67 | 0.0 | 0.0 | 0.00 | 0.00 | 0.00 | 39 | 1015.0 |
| 20260901170519 | 67 | 67 | 0.0 | 0.0 | 0.00 | 0.00 | 0.00 | 44 | 1014.9 |
| 20260901170046 | 65 | 83 | 0.0 | 0.0 | 0.00 | 0.00 | 0.00 | 44 | 1014.9 |
| 20260901165519 | 65 | 70 | 0.0 | 0.0 | 0.00 | 0.00 | 0.00 | 43 | 1014.9 |
| 20260901165020 | 64 | 69 | 0.0 | 0.0 | 0.00 | 0.00 | 0.00 | 48 | 1014.8 |
| 20260901164544 | 64 | 69 | 0.0 | 0.0 | 0.00 | 0.00 | 0.00 | 45 | 1015.0 |
| 20260901164020 | 64 | 69 | 0.0 | 0.0 | 0.00 | 0.00 | 0.00 | 46 | 1014.8 |
| 20260901163523 | 63 | 69 | 0.0 | 0.0 | 0.00 | 0.00 | 0.00 | 47 | 1015.0 |
| 20260901163049 | 63 | 69 | 0.0 | 0.0 | 0.00 | 0.00 | 0.00 | 48 | 1015.0 |
| 20260901162517 | 62 | 69 | 0.0 | 0.0 | 0.00 | 0.00 | 0.00 | 49 | 1014.7 |
| 20260901162019 | 63 | 69 | 0.0 | 0.0 | 0.00 | 0.00 | 0.00 | 45 | 1014.8 |
| 20260901161601 | 63 | 69 | 0.0 | 0.0 | 0.00 | 0.00 | 0.00 | 52 | 1015.2 |
| 20260901161021 | 63 | 69 | 0.0 | 0.0 | 0.00 | 0.00 | 0.00 | 49 | 1015.4 |
| 20260901160523 | 63 | 69 | 0.0 | 0.0 | 0.00 | 0.00 | 0.00 | 47 | 1015.5 |
| 20260901160107 | 63 | 69 | 0.0 | 0.0 | 0.00 | 0.00 | 0.00 | 45 | 1015.4 |
| 20260901155519 | 63 | 69 | 0.0 | 0.0 | 0.00 | 0.00 | 0.00 | 47 | 1015.4 |
| 20260901155020 | 63 | 69 | 0.0 | 0.0 | 0.00 | 0.00 | 0.00 | 46 | 1015.3 |
| 20260901154553 | 63 | 69 | 0.0 | 0.0 | 0.00 | 0.00 | 0.00 | 45 | 1015.3 |
| 20260901154016 | 63 | 69 | 0.0 | 0.0 | 0.00 | 0.00 | 0.00 | 50 | 1015.2 |
| 20260901153522 | 63 | 69 | 0.0 | 0.0 | 0.00 | 0.00 | 0.00 | 45 | 1015.1 |
| 20260901153050 | 62 | 69 | 0.0 | 0.0 | 0.00 | 0.00 | 0.00 | 47 | 1015.2 |
| 20260901152518 | 61 | 69 | 0.0 | 0.0 | 0.00 | 0.00 | 0.00 | 48 | 1015.1 |
| 20260901152018 | 61 | 69 | 0.0 | 0.0 | 0.00 | 0.00 | 0.00 | 52 | 1015.3 |
| 20260901151540 | 60 | 69 | 0.0 | 0.0 | 0.00 | 0.00 | 0.00 | 46 | 1015.3 |
| 20260901151019 | 60 | 69 | 0.0 | 0.0 | 0.00 | 0.00 | 0.00 | 56 | 1015.1 |
| 20260901150518 | 60 | 69 | 0.0 | 0.0 | 0.00 | 0.00 | 0.00 | 51 | 1015.2 |
| 20260901150048 | 60 | 69 | 0.0 | 0.0 | 0.00 | 0.00 | 0.00 | 49 | 1015.1 |
| 20260901145516 | 60 | 69 | 0.0 | 0.0 | 0.00 | 0.00 | 0.00 | 51 | 1015.1 |
| 20260901145021 | 60 | 69 | 0.0 | 0.0 | 0.00 | 0.00 | 0.00 | 49 | 1015.0 |
| 20260901144549 | 60 | 69 | 0.0 | 0.0 | 0.00 | 0.00 | 0.00 | 48 | 1015.2 |
| 20260901144022 | 60 | 69 | 0.0 | 0.0 | 0.00 | 0.00 | 0.00 | 51 | 1015.1 |
| 20260901143519 | 59 | 69 | 0.0 | 0.0 | 0.00 | 0.00 | 0.00 | 48 | 1015.2 |
| 20260901143058 | 59 | 69 | 0.0 | 0.0 | 0.00 | 0.00 | 0.00 | 48 | 1015.4 |
| 20260901142517 | 59 | 69 | 0.0 | 0.0 | 0.00 | 0.00 | 0.00 | 47 | 1015.3 |
| 20260901142017 | 59 | 69 | 0.0 | 0.0 | 0.00 | 0.00 | 0.00 | 47 | 1015.4 |
| 20260901141548 | 59 | 69 | 0.0 | 0.0 | 0.00 | 0.00 | 0.00 | 46 | 1015.5 |
| 20260901141019 | 59 | 69 | 0.0 | 0.0 | 0.00 | 0.00 | 0.00 | 47 | 1015.4 |
| 20260901140518 | 58 | 69 | 0.0 | 0.0 | 0.00 | 0.00 | 0.00 | 47 | 1015.4 |
| 20260901140045 | 58 | 69 | 0.0 | 0.0 | 0.00 | 0.00 | 0.00 | 47 | 1015.3 |
| 20260901135521 | 58 | 69 | 0.0 | 0.0 | 0.00 | 0.00 | 0.00 | 47 | 1015.3 |
| 20260901135023 | 58 | 69 | 0.0 | 0.0 | 0.00 | 0.00 | 0.00 | 48 | 1015.2 |
| 20260901134542 | 57 | 69 | 0.0 | 0.0 | 0.00 | 0.00 | 0.00 | 48 | 1015.2 |
| 20260901134020 | 57 | 69 | 0.0 | 0.0 | 0.00 | 0.00 | 0.00 | 48 | 1015.2 |
| 20260901133517 | 57 | 69 | 0.0 | 0.0 | 0.00 | 0.00 | 0.00 | 48 | 1015.2 |
| 20260901133043 | 57 | 69 | 0.0 | 0.0 | 0.00 | 0.00 | 0.00 | 47 | 1015.1 |
| 20260901132519 | 57 | 69 | 0.0 | 0.0 | 0.00 | 0.00 | 0.00 | 47 | 1015.0 |
| 20260901132020 | 58 | 69 | 0.0 | 0.0 | 0.00 | 0.00 | 0.00 | 47 | 1015.0 |
| 20260901131549 | 58 | 69 | 0.0 | 0.0 | 0.00 | 0.00 | 0.00 | 47 | 1015.0 |
| 20260901131017 | 58 | 69 | 0.0 | 0.0 | 0.00 | 0.00 | 0.00 | 47 | 1015.0 |
| 20260901130520 | 57 | 69 | 0.0 | 0.0 | 0.00 | 0.00 | 0.00 | 48 | 1015.0 |
| 20260901130056 | 57 | 69 | 0.0 | 0.0 | 0.00 | 0.00 | 0.00 | 48 | 1015.0 |
| 20260901125523 | 57 | 69 | 0.0 | 0.0 | 0.00 | 0.00 | 0.00 | 48 | 1015.0 |
| 20260901125019 | 57 | 69 | 0.0 | 0.0 | 0.00 | 0.00 | 0.00 | 48 | 1015.1 |
| 20260901124545 | 57 | 69 | 0.0 | 0.0 | 0.00 | 0.00 | 0.00 | 48 | 1015.1 |
| 20260901124019 | 58 | 69 | 0.0 | 0.0 | 0.00 | 0.00 | 0.00 | 47 | 1015.1 |
| 20260901123519 | 58 | 69 | 0.0 | 0.0 | 0.00 | 0.00 | 0.00 | 47 | 1015.1 |
| 20260901123043 | 58 | 69 | 0.0 | 0.0 | 0.00 | 0.00 | 0.00 | 47 | 1015.3 |
| 20260901122518 | 58 | 69 | 0.0 | 0.0 | 0.00 | 0.00 | 0.00 | 47 | 1015.3 |
| 20260901122017 | 58 | 69 | 0.0 | 0.0 | 0.00 | 0.00 | 0.00 | 47 | 1015.2 |
| 20260901121550 | 58 | 69 | 0.0 | 0.0 | 0.00 | 0.00 | 0.00 | 47 | 1015.3 |
| 20260901121019 | 58 | 69 | 0.0 | 0.0 | 0.00 | 0.00 | 0.00 | 47 | 1015.3 |
| 20260901120519 | 58 | 69 | 0.0 | 0.0 | 0.00 | 0.00 | 0.00 | 47 | 1015.3 |
| 20260901120047 | 58 | 69 | 0.0 | 0.0 | 0.00 | 0.00 | 0.00 | 47 | 1015.3 |
| 20260901115521 | 58 | 69 | 0.0 | 0.0 | 0.00 | 0.00 | 0.00 | 47 | 1015.3 |
| 20260901115023 | 58 | 69 | 0.0 | 0.0 | 0.00 | 0.00 | 0.00 | 46 | 1015.5 |
| 20260901114627 | 58 | 69 | 0.0 | 0.0 | 0.00 | 0.00 | 0.00 | 46 | 1015.4 |
| 20260901114020 | 58 | 69 | 0.0 | 0.0 | 0.00 | 0.00 | 0.00 | 47 | 1015.5 |
| 20260901113521 | 58 | 69 | 0.0 | 0.0 | 0.00 | 0.00 | 0.00 | 47 | 1015.5 |
| 20260901113053 | 58 | 69 | 0.0 | 0.0 | 0.00 | 0.00 | 0.00 | 47 | 1015.5 |
| 20260901112519 | 58 | 69 | 0.0 | 0.0 | 0.00 | 0.00 | 0.00 | 47 | 1015.6 |
| 20260901112019 | 58 | 69 | 0.0 | 0.0 | 0.00 | 0.00 | 0.00 | 48 | 1015.6 |
| 20260901111552 | 58 | 69 | 0.0 | 0.0 | 0.00 | 0.00 | 0.00 | 48 | 1015.6 |
| 20260901111020 | 58 | 69 | 0.0 | 0.0 | 0.00 | 0.00 | 0.00 | 47 | 1015.8 |
| 20260901110521 | 58 | 69 | 0.0 | 0.0 | 0.00 | 0.00 | 0.00 | 48 | 1015.8 |
| 20260901110047 | 58 | 69 | 0.0 | 0.0 | 0.00 | 0.00 | 0.00 | 47 | 1015.8 |
| 20260901105518 | 58 | 69 | 0.0 | 0.0 | 0.00 | 0.00 | 0.00 | 48 | 1015.8 |
| 20260901105023 | 58 | 69 | 0.0 | 0.0 | 0.00 | 0.00 | 0.00 | 47 | 1015.8 |
| 20260901104543 | 58 | 69 | 0.0 | 0.0 | 0.00 | 0.00 | 0.00 | 47 | 1015.9 |
| 20260901104020 | 58 | 69 | 0.0 | 0.0 | 0.00 | 0.00 | 0.00 | 47 | 1015.9 |
| 20260901103519 | 58 | 69 | 0.0 | 0.0 | 0.00 | 0.00 | 0.00 | 47 | 1016.0 |
| 20260901103050 | 58 | 69 | 0.0 | 0.0 | 0.00 | 0.00 | 0.00 | 48 | 1016.0 |
| 20260901102518 | 58 | 69 | 0.0 | 0.0 | 0.00 | 0.00 | 0.00 | 48 | 1016.0 |
| 20260901102016 | 57 | 69 | 0.0 | 0.0 | 0.00 | 0.00 | 0.00 | 49 | 1016.0 |
| 20260901101553 | 57 | 69 | 0.0 | 0.0 | 0.00 | 0.00 | 0.00 | 49 | 1016.1 |
| 20260901101022 | 57 | 69 | 0.0 | 0.0 | 0.00 | 0.00 | 0.00 | 49 | 1016.1 |
| 20260901100518 | 57 | 69 | 0.0 | 0.0 | 0.00 | 0.00 | 0.00 | 50 | 1016.1 |
| 20260901095520 | 56 | 69 | 0.0 | 0.0 | 0.00 | 0.00 | 0.00 | 50 | 1016.1 |
| 20260901095020 | 56 | 69 | 0.0 | 0.0 | 0.00 | 0.00 | 0.00 | 50 | 1016.1 |
| 20260901094546 | 56 | 69 | 0.0 | 0.0 | 0.00 | 0.00 | 0.00 | 50 | 1016.1 |
| 20260901094018 | 57 | 69 | 0.0 | 0.0 | 0.00 | 0.00 | 0.00 | 50 | 1016.1 |
| 20260901093518 | 57 | 69 | 0.0 | 0.0 | 0.00 | 0.00 | 0.00 | 50 | 1016.2 |
| 20260901093038 | 57 | 69 | 0.0 | 0.0 | 0.00 | 0.00 | 0.00 | 49 | 1016.3 |
| 20260901092516 | 57 | 69 | 0.0 | 0.0 | 0.00 | 0.00 | 0.00 | 49 | 1016.3 |
| 20260901092019 | 57 | 69 | 0.0 | 0.0 | 0.00 | 0.00 | 0.00 | 49 | 1016.4 |
| 20260901091541 | 57 | 69 | 0.0 | 0.0 | 0.00 | 0.00 | 0.00 | 49 | 1016.3 |
| 20260901091020 | 57 | 69 | 0.0 | 0.0 | 0.00 | 0.00 | 0.00 | 49 | 1016.3 |
| 20260901090518 | 57 | 69 | 0.0 | 0.0 | 0.00 | 0.00 | 0.00 | 49 | 1016.3 |
| 20260901090038 | 57 | 69 | 0.0 | 0.0 | 0.00 | 0.00 | 0.00 | 49 | 1016.4 |
| 20260901085521 | 57 | 69 | 0.0 | 0.0 | 0.00 | 0.00 | 0.00 | 49 | 1016.3 |
| 20260901085019 | 58 | 69 | 0.0 | 0.0 | 0.00 | 0.00 | 0.00 | 49 | 1016.3 |
| 20260901084540 | 58 | 69 | 0.0 | 0.0 | 0.00 | 0.00 | 0.00 | 48 | 1016.3 |
| 20260901084017 | 58 | 69 | 0.0 | 0.0 | 0.00 | 0.00 | 0.00 | 48 | 1016.3 |
| 20260901083517 | 58 | 69 | 0.0 | 0.0 | 0.00 | 0.00 | 0.00 | 48 | 1016.4 |
| 20260901083038 | 58 | 69 | 0.0 | 0.0 | 0.00 | 0.00 | 0.00 | 48 | 1016.4 |
| 20260901082515 | 58 | 69 | 0.0 | 0.0 | 0.00 | 0.00 | 0.00 | 48 | 1016.4 |
| 20260901082017 | 58 | 69 | 0.0 | 0.0 | 0.00 | 0.00 | 0.00 | 48 | 1016.5 |
| 20260901081541 | 58 | 69 | 0.0 | 0.0 | 0.00 | 0.00 | 0.00 | 48 | 1016.5 |
| 20260901081019 | 58 | 69 | 0.0 | 0.0 | 0.00 | 0.00 | 0.00 | 48 | 1016.5 |
| 20260901080519 | 58 | 69 | 0.0 | 0.0 | 0.00 | 0.00 | 0.00 | 48 | 1016.6 |
| 20260901080037 | 58 | 69 | 0.0 | 0.0 | 0.00 | 0.00 | 0.00 | 49 | 1016.6 |
| 20260901075516 | 58 | 69 | 0.0 | 0.0 | 0.00 | 0.00 | 0.00 | 49 | 1016.6 |
| 20260901075022 | 58 | 69 | 0.0 | 0.0 | 0.00 | 0.00 | 0.00 | 48 | 1016.6 |
| 20260901074544 | 58 | 69 | 0.0 | 0.0 | 0.00 | 0.00 | 0.00 | 49 | 1016.6 |
| 20260901074018 | 58 | 69 | 0.0 | 0.0 | 0.00 | 0.00 | 0.00 | 49 | 1016.6 |
| 20260901073519 | 58 | 69 | 0.0 | 0.0 | 0.00 | 0.00 | 0.00 | 48 | 1016.5 |
| 20260901073036 | 58 | 69 | 0.0 | 0.0 | 0.00 | 0.00 | 0.00 | 48 | 1016.6 |
| 20260901072521 | 58 | 69 | 0.0 | 0.0 | 0.00 | 0.00 | 0.00 | 48 | 1016.6 |
| 20260901072018 | 58 | 69 | 0.0 | 0.0 | 0.00 | 0.00 | 0.00 | 48 | 1016.6 |
| 20260901071540 | 58 | 69 | 0.0 | 0.0 | 0.00 | 0.00 | 0.00 | 48 | 1016.7 |
| 20260901071018 | 58 | 69 | 0.0 | 0.0 | 0.00 | 0.00 | 0.00 | 48 | 1016.7 |
| 20260901070517 | 58 | 69 | 0.0 | 0.0 | 0.00 | 0.00 | 0.00 | 48 | 1016.7 |
| 20260901070054 | 58 | 69 | 0.0 | 0.0 | 0.00 | 0.00 | 0.00 | 48 | 1016.7 |
| 20260901065520 | 58 | 69 | 0.0 | 0.0 | 0.00 | 0.00 | 0.00 | 49 | 1016.8 |
| 20260901065020 | 58 | 69 | 0.0 | 0.0 | 0.00 | 0.00 | 0.00 | 49 | 1016.8 |
| 20260901064543 | 58 | 69 | 0.0 | 0.0 | 0.00 | 0.00 | 0.00 | 48 | 1016.8 |
| 20260901064018 | 58 | 69 | 0.0 | 0.0 | 0.00 | 0.00 | 0.00 | 48 | 1016.9 |
| 20260901063520 | 58 | 69 | 0.0 | 0.0 | 0.00 | 0.00 | 0.00 | 48 | 1016.7 |
| 20260901063046 | 58 | 69 | 0.0 | 0.0 | 0.00 | 0.00 | 0.00 | 48 | 1016.8 |
| 20260901062516 | 58 | 69 | 0.0 | 0.0 | 0.00 | 0.00 | 0.00 | 48 | 1016.9 |
| 20260901062020 | 58 | 69 | 0.0 | 0.0 | 0.00 | 0.00 | 0.00 | 48 | 1016.9 |
| 20260901061547 | 58 | 69 | 0.0 | 0.0 | 0.00 | 0.00 | 0.00 | 48 | 1016.9 |
| 20260901061018 | 58 | 69 | 0.0 | 0.0 | 0.00 | 0.00 | 0.00 | 48 | 1017.0 |
| 20260901060519 | 58 | 69 | 0.0 | 0.0 | 0.00 | 0.00 | 0.00 | 48 | 1017.0 |
| 20260901060044 | 58 | 69 | 0.0 | 0.0 | 0.00 | 0.00 | 0.00 | 48 | 1017.1 |
| 20260901055517 | 58 | 69 | 0.0 | 0.0 | 0.00 | 0.00 | 0.00 | 48 | 1017.1 |
| 20260901055016 | 58 | 69 | 0.0 | 0.0 | 0.00 | 0.00 | 0.00 | 48 | 1017.2 |
| 20260901054547 | 58 | 69 | 0.0 | 0.0 | 0.00 | 0.00 | 0.00 | 48 | 1017.1 |
| 20260901054018 | 58 | 69 | 0.0 | 0.0 | 0.00 | 0.00 | 0.00 | 48 | 1017.2 |
| 20260901053518 | 58 | 69 | 0.0 | 0.0 | 0.00 | 0.00 | 0.00 | 48 | 1017.2 |
| 20260901053052 | 58 | 69 | 0.0 | 0.0 | 0.00 | 0.00 | 0.00 | 48 | 1017.3 |
| 20260901052519 | 58 | 69 | 0.0 | 0.0 | 0.00 | 0.00 | 0.00 | 48 | 1017.4 |
| 20260901052020 | 58 | 69 | 0.0 | 0.0 | 0.00 | 0.00 | 0.00 | 48 | 1017.4 |
| 20260901051553 | 58 | 69 | 0.0 | 0.0 | 0.00 | 0.00 | 0.00 | 48 | 1017.4 |
| 20260901051023 | 58 | 69 | 0.0 | 0.0 | 0.00 | 0.00 | 0.00 | 48 | 1017.4 |
| 20260901050516 | 59 | 69 | 0.0 | 0.0 | 0.00 | 0.00 | 0.00 | 48 | 1017.5 |
| 20260901050052 | 59 | 69 | 0.0 | 0.0 | 0.00 | 0.00 | 0.00 | 48 | 1017.6 |
| 20260901045518 | 59 | 69 | 0.0 | 0.0 | 0.00 | 0.00 | 0.00 | 48 | 1017.7 |
| 20260901045018 | 59 | 69 | 0.0 | 0.0 | 0.00 | 0.00 | 0.00 | 48 | 1017.8 |
| 20260901044555 | 58 | 69 | 0.0 | 0.0 | 0.00 | 0.00 | 0.00 | 48 | 1017.8 |